sat.trackr.live / text

‹ back to catalog

PLEIADES NEO 3

NORAD 48268 · 2021-034A

PAYLOAD ACTIVE UNKNOWN

§ Identity

Operator
Country
FR
Launch date
2021-04-29
Launch site
FRGUI
Launch vehicle
Mass (kg)
RCS (m²)

Purposes: earth_obs

External: N2YO · Heavens-Above · Gunter

§ Orbital elements

Epoch: 2026-09-19T22:24:29.017152Z

Period
97.19 min
Inclination
97.8948°
Eccentricity
0.0001443
Mean motion
14.81672328 rev/d
Perigee alt
623.0 km
Apogee alt
625.1 km
Semi-major
7,002.2 km
B*
-3.0403e-5
RAAN
336.3383°
Arg perigee
83.5842°
Mean anomaly
276.5536°
Rev number
29,168

§ Raw data

PLEIADES NEO 31 48268U 21034A   26262.93366918 -.00000291  00000+0 -30403-4 0  99982 48268  97.8948 336.3383 0001443  83.5842 276.5536 14.81672328291688

JSON: /api/v1/satellites/48268 · /tle

For live sub-satellite position, see the globe view (requires WebGL).

§ Visibility from observer

Set your observer location to see the next 7 days of passes ≥ 10°. The values pass through the URL so the page stays shareable.

No JS? Fill the form by hand. The geolocation button needs JavaScript.

§ Radio — SatNOGS DB

ModeDescriptionDownlinkUplink
BPSK S-band telemetry 2.266 GHz

1 transmitter · refreshed weekly from db.satnogs.org